Location: Igri�s
(42.2144°N, 0.4320°W)
Time: 08:58:29
(UTC+00:00)

Cosmos 1821 Rocket - Pass Details

Date: 13 August 2020
Orbit: 946 x 1004 km, 82.9° (Epoch: 18 September)

Event Time Altitude Azimuth Distance (km) Brightness Sun altitude
Rises 20:02:32 0° 187° (S) 3,614 6.7 -10.5°
Reaches altitude 10° 20:05:00 10° 187° (S) 2,678 6.1 -10.9°
Maximum altitude 20:11:08 87° 277° (W) 974 4.0 -11.8°
Drops below altitude 10° 20:17:25 10° 7° (N) 2,735 6.7 -12.8°
Sets 20:19:58 0° 8° (N) 3,695 7.4 -13.2°
